Regional Weather Roundup
Issued by NWS

Home | Current Version | Previous Version | Graphics & Text | Print | Product List | Glossary On
Versions: 1 2 3 4 5 6 7 8 9 10 11 12 13 14 15 16 17 18 19 20 21 22 23 24 25 26 27
000
ASUS45 KCYS 250510
RWRWY

WYOMING REGIONAL WEATHER ROUNDUP
NATIONAL WEATHER SERVICE CHEYENNE WY
1000 PM MST FRI FEB 24 2017

NOTE:  "FAIR" INDICATES FEW OR NO CLOUDS BELOW 12,000 FEET
WITH NO SIGNIFICANT WEATHER AND/OR OBSTRUCTIONS TO VISIBILITY.

WYZ001-250600-
YELLOWSTONE NATIONAL PARK

CITY           SKY/WX    TMP DP  RH WIND       PRES   REMARKS
LK YELLOWSTONE   N/A      5   3  91 CALM      29.95S
W YELLOWSTONE  NOT AVBL

$$
WYZ002>013-054>058-071-098>099-250600-
NORTHERN WYOMING

CITY           SKY/WX    TMP DP  RH WIND       PRES   REMARKS
JACKSON        CLOUDY    12   9  85 SW8       30.01S WCI   1
CODY           FLURRIES  19  16  88 CALM      30.00S
GREYBULL       CLOUDY    27  23  85 NW3       30.01S
WORLAND        MOCLDY    19  16  88 S8        30.00S WCI   9
SHERIDAN       FAIR      23  19  85 W8        29.99F WCI  14
BUFFALO        CLOUDY    21  15  78 N7        29.96R WCI  12
GILLETTE       MOCLDY    18  13  80 S8        29.96F WCI   8
HULETT         CLOUDY    23  18  80 MISG      29.98F
NEWCASTLE      FAIR      14  12  92 CALM      30.02F

$$
WYZ014>020-022>026-101>103-250600-
CENTRAL WYOMING

CITY           SKY/WX    TMP DP  RH WIND       PRES   REMARKS
BIG PINEY      FAIR       4  -2  76 E8        30.00R WCI  -9
PINEDALE       FAIR       0  -6  78 NW5       29.99S WCI -10
DUBOIS         FAIR      10   1  67 NW20      29.92R WCI  -8
LANDER         FAIR       8   3  80 CALM      29.97R
RIVERTON       MOCLDY     8   5  87 W6        29.97S WCI  -2
CASPER         FAIR      10   5  80 SW10      29.96S WCI  -4
DOUGLAS        FAIR       4   1  88 CALM      29.98F

$$
WYZ021-027>030-104>119-250600-
SOUTHERN WYOMING

CITY           SKY/WX    TMP DP  RH WIND       PRES   REMARKS
EVANSTON       FAIR       9   2  73 S7        30.03R WCI  -2
FORT BRIDGER   FAIR      10   4  79 SW14      30.05S WCI  -6
ROCK SPRINGS   FAIR      10   3  73 SW14      30.00S WCI  -6
DIXON            N/A      2  -3  82 CALM      30.06S
RAWLINS        FAIR      10   3  73 SW16      29.95S WCI  -7
SARATOGA       MOCLDY    12   5  73 SW10      29.98S WCI  -1
LARAMIE        FAIR       3  -1  83 SW6       29.91S WCI  -8
CHEYENNE       FAIR       6   1  80 W7        29.97S WCI  -6
TORRINGTON     FOG        5   3  91 E5        30.02F VSB 1/4 WCI  -4
PINE BLUFFS    FAIR       7   3  85 SW6       30.02S WCI  -3

$$




USA.gov is the U.S. government's official web portal to all federal, state and local government web resources and services.